Wetbulb
59.67 59.75 60.13 59.93 59.63 60.25 60.57 60.70 61.05 61.52 61.26 60.53 60.80 63.54 64.00 63.24 66.70 67.03 66.84 71.19 71.41 71.51 71.38 71.50 70.72 69.69 69.08 69.58 69.03 69.77 70.45 71.69 71.47 70.72 69.90 69.15 68.20 67.37 66.63 65.82 65.41 65.26 64.97
60.71 59.04 59.44 59.28 59.00 59.13 60.12 60.36 60.68 61.01 60.45 59.36 60.30 64.08 63.71 64.77 65.67 66.35 67.55 69.59 70.82 70.38 70.72 70.72 70.06 69.63 69.43 69.68 69.11 70.08 70.60 71.17 70.64 69.54 68.76 68.46 67.64 66.18 65.85 65.60 65.31 64.92 64.70
61.43 59.16 59.30 59.14 58.76 59.13 59.69 60.31 60.51 60.66 60.41 61.33 61.36 63.48 63.78 64.83 65.47 66.46 66.55 68.00 68.69 69.92 70.56 70.68 70.04 70.00 70.06 69.51 69.90 70.86 71.04 70.70 69.79 69.09 68.26 67.30 66.83 66.33 65.41 65.46 65.15 64.69 63.89
61.42 59.51 59.63 59.30 59.33 58.86 58.92 59.38 59.74 59.56 60.89 60.48 60.44 61.08 62.40 63.96 65.60 66.73 67.16 67.55 68.31 68.31 70.16 70.06 69.53 69.30 69.77 69.81 70.29 71.18 70.76 69.86 69.13 68.33 67.62 66.65 65.83 65.73 65.38 65.12 64.79 64.04 63.52
60.85 59.95 59.82 60.09 59.56 58.92 58.80 59.48 59.18 59.78 59.14 59.60 60.82 61.11 62.13 61.72 64.63 67.57 67.21 67.39 67.59 67.35 67.28 68.73 69.01 69.34 69.62 69.94 70.46 70.80 70.24 69.09 68.47 67.76 66.87 66.12 65.76 65.31 65.07 64.80 64.32 63.78 63.07
60.88 60.19 60.26 60.61 59.78 58.66 58.20 58.68 58.33 59.28 59.69 59.80 62.33 62.18 62.30 61.92 64.44 66.47 66.26 66.94 66.97 66.65 66.51 66.40 67.10 67.48 68.47 68.93 69.45 70.68 70.28 68.73 67.57 67.02 67.03 66.35 65.78 64.97 64.84 64.49 63.78 63.42 62.90
59.48 59.07 60.00 59.79 59.98 58.34 58.13 58.67 58.80 58.56 58.66 58.86 58.79 60.60 61.08 62.37 63.20 65.83 66.15 65.76 65.77 65.47 65.08 65.74 65.88 65.29 65.69 67.41 67.94 69.81 69.85 68.46 67.48 66.64 66.49 65.76 65.34 64.67 64.50 64.10 63.54 63.21 62.66
61.05 60.61 59.97 59.45 60.15 59.02 58.82 58.96 58.48 57.75 57.46 59.46 57.70 58.59 57.59 59.79 62.16 64.61 65.04 64.65 64.57 64.09 64.85 64.94 64.51 65.21 65.37 65.45 66.36 68.74 68.76 68.36 67.65 66.50 65.88 65.34 65.21 64.32 64.13 63.61 63.01 62.67 62.35
61.84 60.88 60.91 59.69 59.68 59.51 58.82 59.08 58.67 57.90 56.68 58.74 61.40 58.22 55.06 54.44 59.57 62.49 63.25 63.53 63.42 63.90 64.18 63.84 64.20 65.08 65.05 65.16 66.21 67.96 68.41 68.30 67.53 66.51 65.21 64.81 64.33 63.99 63.41 62.87 62.42 62.23 61.96
61.33 61.50 61.05 60.42 59.49 59.28 59.27 60.04 60.09 59.81 59.88 59.18 59.72 60.91 59.64 59.20 57.91 57.38 61.71 62.35 63.09 62.64 62.61 63.27 63.71 64.41 64.66 64.84 66.10 67.24 66.84 67.45 67.01 65.88 64.87 64.59 64.26 63.79 63.15 62.54 62.16 61.94 61.67
61.68 61.95 61.17 60.20 59.21 59.24 59.30 60.62 57.81 60.43 60.26 59.31 60.27 58.49 58.69 59.75 60.93 59.05 57.08 59.03 61.64 62.10 62.30 62.91 63.47 64.18 64.84 65.09 65.46 65.81 65.49 65.47 65.25 64.86 64.77 64.36 63.98 63.53 62.99 62.49 62.02 61.83 61.31
60.38 61.37 61.30 60.28 59.71 59.50 59.65 60.20 59.64 60.21 59.46 60.28 59.75 59.30 59.45 58.02 59.48 58.71 58.04 58.51 58.83 60.58 62.29 63.39 63.35 64.38 65.08 65.09 66.21 64.96 63.70 63.07 62.32 62.50 63.09 63.99 64.32 63.85 63.13 62.47 62.11 61.88 61.24
58.98 59.58 60.02 60.14 60.29 59.91 61.57 61.20 61.33 61.51 61.53 61.39 60.20 59.73 60.84 60.99 61.54 60.84 59.82 58.69 57.92 60.23 61.59 63.23 63.52 64.06 64.92 64.99 65.08 64.48 63.75 61.57 60.62 60.52 60.92 61.74 62.72 63.50 63.55 63.49 62.66 61.97 61.44
59.53 60.61 60.94 60.84 61.38 61.85 61.81 61.53 60.60 61.48 61.79 61.95 60.75 60.25 61.24 61.48 61.91 61.27 60.23 59.00 57.34 57.08 59.42 60.58 63.38 63.63 63.88 64.26 63.96 63.71 61.59 60.67 59.96 59.28 59.20 60.09 60.91 61.28 61.93 62.25 62.01 62.28 61.84
61.21 61.57 61.51 61.41 61.45 61.91 61.72 61.39 62.64 62.35 62.34 61.59 60.48 60.63 61.10 61.05 60.97 60.66 61.28 60.36 58.81 55.72 56.20 59.76 60.52 63.19 63.84 63.25 63.37 61.12 59.98 60.53 60.65 58.73 58.36 58.69 59.24 59.47 59.67 59.47 59.89 59.74 59.69
60.98 61.50 61.84 61.52 61.79 61.70 62.04 62.80 62.68 61.33 61.15 61.10 61.27 61.67 61.28 61.00 60.66 61.32 61.03 61.14 60.27 58.32 55.96 59.54 60.30 62.53 63.95 63.75 63.71 61.18 60.70 60.25 59.11 57.85 57.57 57.21 57.07 56.98 57.36 57.62 57.69 58.05 58.44
62.06 61.26 61.92 61.99 61.86 62.45 61.84 61.62 61.80 60.99 60.70 60.63 61.07 60.41 60.14 61.60 61.33 60.98 61.48 61.57 60.68 60.23 57.70 59.15 61.12 62.41 62.51 62.13 61.48 61.54 61.30 59.31 58.24 57.29 57.34 56.51 55.20 54.98 55.35 55.57 55.61 56.39 56.75
61.20 61.85 62.30 62.28 62.57 61.65 61.58 61.49 61.48 61.50 60.22 59.32 59.91 59.79 60.62 61.20 60.97 60.95 61.08 60.44 60.70 60.83 59.74 57.86 60.22 61.14 60.64 60.66 60.25 59.93 59.88 60.14 56.93 57.21 56.32 55.19 54.10 53.35 53.25 53.36 53.44 53.81 53.54
60.81 61.59 62.43 61.85 62.55 62.31 61.69 61.68 61.62 60.79 59.88 59.86 59.73 60.32 60.52 60.41 60.35 60.67 60.53 60.54 60.53 61.95 59.96 58.94 58.11 58.92 58.19 58.32 57.08 57.87 58.19 55.79 57.19 57.40 54.72 54.27 53.40 53.02 52.84 52.52 52.11 51.93 51.20
60.56 60.64 61.85 62.67 62.92 63.03 62.43 62.77 62.63 61.67 61.39 60.81 60.22 60.31 60.39 60.71 60.24 60.41 60.61 60.36 60.65 59.66 59.12 58.57 57.31 56.35 55.58 55.93 54.26 54.50 55.96 57.04 55.76 56.34 55.08 53.01 53.01 53.36 52.84 52.22 52.20 52.30 50.75
61.67 61.53 60.97 62.77 63.32 63.25 63.68 62.42 62.43 61.94 61.35 60.73 61.03 61.05 61.28 60.98 59.84 60.21 60.96 59.97 59.44 59.12 57.88 56.94 55.32 54.53 53.99 54.93 52.92 54.99 55.22 55.37 55.23 52.78 50.24 49.79 49.31 49.23 49.68 51.89 52.95 53.29 51.16
61.76 58.83 57.93 58.09 58.20 59.88 53.72 55.66 60.89 62.12 61.51 61.29 60.68 60.77 60.47 59.21 58.06 56.60 56.37 56.82 58.25 58.10 55.22 54.93 53.97 53.71 53.84 54.95 54.97 55.86 55.02 53.30 52.72 56.46 52.41 50.09 48.71 46.77 48.48 47.11 49.08 48.65 48.19
57.35 57.23 56.78 55.91 55.40 53.80 51.27 53.49 56.64 62.60 62.04 60.93 59.39 59.46 60.29 60.80 57.39 58.24 51.82 51.65 52.37 53.05 55.71 55.44 53.65 53.87 53.03 55.58 55.46 53.77 53.65 54.08 53.62 55.81 54.18 51.85 51.52 48.82 49.48 51.08 48.15 47.09 46.80
56.63 55.32 55.18 53.50 50.72 48.74 48.70 51.02 53.95 61.16 60.02 59.47 58.67 58.50 57.81 56.79 56.40 54.55 55.02 55.80 56.24 57.09 56.36 59.86 56.89 55.89 56.05 56.25 57.18 57.55 56.05 54.97 54.87 55.94 55.09 52.57 53.25 52.98 54.28 53.95 49.47 47.73 46.72
56.84 55.24 53.95 52.32 50.91 47.90 47.98 51.04 58.05 58.81 58.58 58.50 58.15 56.10 57.45 55.61 49.80 50.72 56.48 55.39 54.70 50.95 46.25 45.68 45.69 43.33 42.65 46.19 51.53 54.14 52.38 49.40 47.17 47.57 48.05 47.77 45.98 44.92 46.20 47.91 48.02 47.27 45.70
57.53 57.55 55.31 52.19 50.68 48.57 43.62 46.74 55.24 58.14 55.20 53.62 51.47 53.48 51.16 51.07 45.25 49.93 55.05 54.08 52.85 52.11 50.42 48.72 49.00 45.06 43.26 45.02 46.18 47.97 49.21 44.59 44.14 43.36 48.29 45.76 44.83 44.87 44.85 48.22 48.44 48.21 47.57
MSLP
1011.34 1011.07 1011.07 1011.01 1011.14 1011.17 1011.36 1011.64 1011.79 1012.05 1012.15 1012.12 1012.22 1012.34 1012.22 1012.41 1012.60 1012.82 1013.01 1013.27 1013.89 1014.41 1015.17 1015.76 1016.52 1017.20 1017.81 1018.36 1018.96 1019.20 1019.48 1019.92 1020.36 1020.76 1021.11 1021.57 1021.87 1022.13 1022.56 1023.23 1023.41 1023.52 1023.81
1010.92 1010.96 1011.00 1011.00 1011.05 1010.95 1011.06 1011.24 1011.54 1011.74 1011.94 1012.03 1011.99 1011.94 1012.06 1012.14 1012.43 1012.74 1013.04 1013.38 1013.80 1014.36 1015.13 1015.70 1016.31 1017.13 1017.84 1018.38 1018.89 1019.31 1019.64 1020.07 1020.60 1020.94 1021.51 1021.93 1022.24 1022.46 1022.87 1023.36 1023.52 1023.84 1024.25
1010.31 1010.60 1010.75 1010.80 1010.83 1010.64 1010.64 1010.89 1011.38 1011.65 1011.84 1011.84 1011.75 1011.81 1011.97 1012.14 1012.33 1012.74 1013.23 1013.55 1013.80 1014.34 1015.16 1015.70 1016.41 1016.82 1017.53 1018.36 1018.76 1019.16 1019.74 1020.20 1020.81 1021.36 1021.64 1022.24 1022.54 1022.82 1023.20 1023.23 1023.72 1024.21 1024.48
1009.96 1010.29 1010.45 1010.51 1010.29 1010.35 1010.54 1010.88 1011.22 1011.62 1011.60 1011.50 1011.57 1011.86 1012.09 1012.33 1012.48 1012.85 1013.31 1013.87 1014.17 1014.75 1015.24 1015.89 1016.51 1016.85 1017.54 1018.29 1018.52 1019.08 1019.90 1020.48 1021.08 1021.35 1022.02 1022.46 1022.73 1023.00 1023.24 1023.70 1024.22 1024.61 1024.78
1009.68 1009.88 1009.99 1010.07 1009.99 1010.19 1010.40 1010.68 1011.08 1011.40 1011.65 1011.61 1011.71 1011.94 1012.22 1012.64 1012.71 1013.04 1013.52 1014.14 1014.53 1015.19 1015.69 1016.18 1016.67 1017.22 1017.60 1018.17 1018.70 1019.29 1020.04 1020.69 1021.24 1021.59 1022.33 1022.56 1022.64 1023.22 1023.58 1023.97 1024.35 1024.71 1025.04
1009.44 1009.60 1009.67 1009.76 1009.91 1010.07 1010.26 1010.58 1010.91 1011.18 1011.35 1011.43 1011.62 1012.13 1012.38 1012.85 1013.17 1013.50 1013.93 1014.30 1014.80 1015.47 1016.02 1016.57 1017.18 1017.52 1017.92 1018.37 1018.99 1019.41 1020.25 1020.90 1021.33 1021.98 1022.37 1022.31 1022.86 1023.53 1023.83 1024.27 1024.50 1024.94 1025.06
1009.04 1009.36 1009.45 1009.57 1009.74 1009.93 1010.11 1010.40 1010.75 1011.13 1011.38 1011.38 1012.02 1012.70 1013.15 1013.23 1013.44 1013.76 1014.18 1014.61 1015.08 1015.73 1016.36 1016.85 1017.28 1018.00 1018.67 1019.09 1019.56 1019.60 1020.57 1021.18 1021.61 1022.22 1022.26 1022.83 1022.85 1023.73 1023.95 1024.48 1024.77 1025.04 1025.26
1008.63 1009.01 1009.19 1009.35 1009.48 1009.86 1010.02 1010.34 1010.70 1011.12 1011.51 1011.38 1011.86 1012.55 1013.32 1013.90 1014.07 1014.05 1014.38 1014.97 1015.54 1016.03 1016.65 1017.27 1017.69 1018.46 1018.91 1019.63 1020.04 1019.87 1020.25 1021.08 1021.74 1022.36 1022.76 1022.92 1023.07 1023.60 1024.14 1024.69 1024.90 1025.29 1025.27
1008.32 1008.68 1008.92 1009.11 1009.31 1009.63 1009.95 1010.25 1010.58 1010.94 1011.54 1011.45 1011.48 1011.94 1012.88 1013.55 1014.04 1014.20 1014.62 1015.27 1015.88 1016.58 1017.14 1017.67 1018.15 1018.79 1019.40 1019.69 1020.00 1020.39 1020.63 1021.45 1022.15 1022.56 1022.57 1023.02 1023.05 1023.59 1024.37 1024.96 1025.16 1025.37 1025.42
1008.48 1008.58 1008.76 1009.07 1009.34 1009.61 1009.71 1010.00 1010.27 1010.54 1010.96 1011.62 1011.91 1011.85 1011.97 1012.61 1013.27 1013.95 1014.74 1015.60 1016.17 1016.57 1017.42 1017.89 1018.53 1019.10 1019.66 1020.03 1020.42 1020.80 1021.31 1021.86 1022.26 1022.32 1022.55 1022.95 1023.25 1023.83 1024.36 1024.97 1025.18 1025.30 1025.48
1008.55 1008.66 1008.79 1009.05 1009.44 1009.55 1009.73 1009.97 1010.27 1010.43 1010.75 1011.69 1011.88 1012.26 1012.48 1012.80 1013.25 1013.76 1014.58 1015.75 1016.58 1016.95 1017.67 1018.09 1018.71 1019.26 1019.95 1020.15 1020.63 1020.94 1021.62 1022.02 1022.16 1022.25 1022.57 1023.06 1023.57 1023.86 1024.37 1024.91 1025.02 1025.23 1025.17
1008.64 1008.64 1008.89 1009.14 1009.34 1009.48 1009.77 1010.07 1010.12 1010.54 1010.80 1011.44 1011.85 1012.03 1012.16 1012.72 1013.48 1014.07 1015.18 1016.07 1016.52 1017.33 1017.92 1018.46 1018.88 1019.58 1020.00 1020.32 1020.65 1021.27 1021.58 1021.95 1022.27 1022.60 1022.95 1023.20 1023.54 1023.97 1024.32 1024.58 1024.95 1025.01 1025.03
1008.85 1008.82 1009.02 1009.22 1009.39 1009.47 1009.65 1009.96 1010.20 1010.57 1010.85 1011.31 1011.69 1012.03 1012.22 1012.78 1013.23 1014.08 1014.80 1015.85 1016.76 1017.96 1018.14 1018.91 1019.28 1019.71 1019.87 1020.45 1021.00 1021.36 1021.59 1021.96 1022.58 1022.73 1023.12 1023.34 1023.50 1023.90 1024.30 1024.42 1024.62 1024.75 1024.67
1008.88 1008.92 1009.15 1009.35 1009.40 1009.52 1009.68 1010.02 1010.36 1010.77 1011.25 1011.51 1011.78 1012.17 1012.68 1013.18 1013.03 1013.68 1014.43 1015.63 1017.23 1017.71 1018.43 1018.81 1019.49 1019.68 1020.10 1020.60 1020.86 1021.26 1021.90 1022.25 1022.68 1023.04 1023.09 1023.39 1023.71 1023.72 1023.99 1024.13 1024.20 1024.43 1024.60
1009.00 1009.07 1009.17 1009.36 1009.49 1009.59 1009.87 1010.21 1010.80 1011.17 1011.56 1011.93 1012.40 1012.69 1013.03 1013.55 1013.95 1014.30 1014.96 1015.75 1016.30 1017.33 1018.41 1018.99 1019.37 1019.93 1020.30 1020.88 1021.28 1021.83 1022.22 1022.19 1022.68 1022.98 1023.14 1023.41 1023.44 1023.48 1023.60 1023.94 1024.26 1024.13 1024.38
1009.19 1009.18 1009.28 1009.41 1009.69 1009.86 1010.16 1010.53 1011.25 1011.80 1012.22 1012.89 1013.05 1013.20 1013.82 1014.13 1014.65 1015.03 1015.53 1016.11 1016.71 1017.16 1018.30 1018.88 1019.47 1019.92 1020.24 1020.93 1021.36 1021.70 1021.86 1022.18 1022.48 1022.60 1022.77 1023.18 1023.32 1023.34 1023.53 1023.67 1023.95 1024.21 1024.23
1009.34 1009.40 1009.56 1009.64 1009.94 1010.23 1010.66 1011.16 1011.76 1012.35 1012.78 1013.20 1013.55 1013.86 1014.24 1014.63 1015.27 1015.64 1016.17 1016.50 1016.98 1017.87 1018.43 1019.42 1019.48 1019.90 1020.33 1020.71 1021.09 1021.42 1021.65 1021.94 1022.24 1022.59 1022.83 1022.89 1022.88 1023.04 1023.19 1023.48 1023.41 1023.59 1023.92
1009.63 1009.60 1009.79 1010.06 1010.34 1010.68 1011.07 1011.61 1012.22 1012.78 1013.13 1013.56 1014.03 1014.36 1014.72 1015.23 1015.84 1016.11 1016.51 1017.05 1017.50 1018.27 1018.80 1019.44 1020.05 1020.35 1020.56 1020.71 1021.02 1021.60 1021.71 1021.96 1022.37 1022.18 1022.15 1022.28 1022.70 1022.65 1022.62 1023.07 1023.27 1023.76 1023.69
1009.86 1009.92 1010.07 1010.36 1010.72 1011.07 1011.49 1011.88 1012.32 1013.03 1013.56 1014.10 1014.44 1014.60 1015.09 1015.41 1016.11 1016.52 1016.80 1017.53 1017.73 1018.57 1019.12 1019.57 1020.12 1020.43 1020.62 1020.94 1021.35 1021.51 1021.67 1021.77 1021.66 1021.47 1021.81 1022.13 1022.25 1022.40 1022.27 1023.05 1023.12 1023.26 1023.49
1010.26 1010.42 1010.34 1010.57 1010.85 1011.25 1011.69 1012.24 1012.63 1013.23 1013.77 1014.32 1014.83 1015.09 1015.37 1015.67 1016.04 1016.78 1017.32 1017.74 1018.13 1018.95 1019.36 1019.78 1020.21 1020.48 1020.82 1020.94 1021.04 1021.43 1021.48 1021.48 1021.36 1021.14 1021.54 1021.84 1022.00 1021.85 1022.38 1022.55 1022.64 1022.83 1022.86
1010.56 1010.62 1010.61 1010.91 1011.17 1011.49 1011.90 1012.47 1012.82 1013.43 1013.82 1014.47 1014.89 1015.35 1015.65 1015.98 1016.56 1017.03 1017.37 1017.92 1018.37 1018.97 1019.29 1019.81 1020.41 1020.80 1020.77 1021.04 1021.02 1021.06 1021.39 1021.61 1021.40 1021.61 1022.15 1021.92 1021.89 1022.08 1022.17 1022.27 1022.18 1021.96 1021.92
1010.90 1011.05 1011.31 1011.59 1011.85 1011.90 1012.25 1012.71 1013.04 1013.50 1013.96 1014.55 1015.06 1015.53 1015.93 1016.54 1017.06 1017.17 1017.45 1017.84 1018.09 1018.48 1019.21 1019.76 1020.18 1020.19 1020.55 1020.44 1020.75 1021.36 1021.59 1022.12 1022.21 1021.04 1021.55 1021.48 1021.51 1022.22 1022.07 1021.78 1021.10 1021.11 1021.03
1011.28 1011.52 1011.80 1012.20 1012.62 1012.60 1012.67 1013.05 1013.43 1013.69 1014.21 1014.71 1015.13 1015.54 1016.01 1016.51 1016.91 1017.17 1017.55 1017.80 1017.86 1018.21 1018.34 1018.92 1019.60 1019.62 1020.31 1020.07 1020.37 1021.47 1021.49 1021.61 1021.51 1020.96 1021.10 1021.68 1021.61 1021.74 1021.13 1020.92 1020.61 1020.54 1020.60
1011.71 1011.92 1012.13 1012.39 1012.82 1013.23 1013.08 1013.37 1013.72 1013.97 1014.33 1014.73 1015.14 1015.53 1015.84 1016.39 1016.78 1017.16 1017.64 1017.93 1018.03 1018.30 1018.74 1018.76 1019.03 1019.76 1019.67 1019.87 1020.05 1020.65 1020.85 1020.81 1021.15 1021.16 1021.55 1022.13 1021.84 1021.92 1021.31 1020.80 1020.91 1020.94 1021.09
1012.09 1012.27 1012.39 1012.71 1012.96 1013.34 1013.38 1013.70 1013.99 1014.34 1014.70 1015.00 1015.32 1015.64 1015.93 1016.51 1016.88 1017.16 1017.35 1017.89 1018.53 1019.04 1019.18 1019.12 1019.31 1019.68 1019.72 1019.74 1019.78 1020.45 1020.83 1021.22 1022.00 1022.16 1021.93 1021.90 1022.06 1021.88 1021.41 1020.73 1020.37 1020.27 1020.32
1011.96 1012.31 1012.79 1012.91 1013.27 1013.61 1013.71 1013.77 1013.98 1014.54 1015.14 1015.40 1015.66 1015.98 1016.10 1016.50 1016.91 1017.13 1017.46 1018.13 1018.49 1018.75 1018.86 1019.19 1019.27 1019.37 1019.50 1019.79 1020.10 1020.52 1021.21 1021.70 1021.91 1022.09 1021.97 1022.12 1022.19 1021.96 1021.55 1020.90 1020.51 1020.19 1020.10
Wind_Speed
4 3 3 2 2 3 4 4 4 4 6 6 6 7 7 6 6 3 2 17 19 20 22 24 22 20 19 20 19 19 19 18 18 18 17 16 17 18 17 15 15 15 14
4 3 3 3 3 3 4 5 5 5 5 5 6 6 6 3 6 5 4 8 17 19 24 26 27 24 19 21 19 19 19 19 20 19 17 16 16 16 16 15 15 15 14
4 4 4 3 4 3 5 5 4 4 4 5 6 5 5 5 5 6 5 6 8 25 25 26 27 25 21 20 22 22 21 20 19 18 18 15 15 15 15 16 15 14 14
4 4 4 4 4 4 4 4 4 3 4 4 3 3 4 3 5 8 8 7 6 8 18 25 25 25 25 22 24 24 21 20 19 18 17 16 16 15 15 14 14 13 14
5 4 4 4 4 4 4 4 3 3 4 3 3 3 3 2 5 8 11 10 10 8 7 20 21 22 23 23 25 24 22 20 18 18 17 17 16 14 14 14 14 13 12
5 4 4 4 4 3 3 3 4 3 3 4 5 4 1 4 5 9 10 9 9 10 7 7 7 11 18 19 23 23 21 19 19 18 16 16 16 14 14 13 13 12 12
6 4 3 3 4 5 5 5 3 3 3 3 5 4 2 2 6 8 9 8 10 9 9 9 7 7 7 17 17 22 21 20 18 17 16 15 16 15 14 12 12 11 11
6 4 4 4 5 4 5 5 4 2 2 3 5 5 3 3 5 7 9 8 10 8 9 10 13 9 8 6 8 14 19 18 16 16 16 14 15 14 13 12 11 10 10
5 4 4 4 4 4 4 4 5 5 3 1 4 5 4 3 5 5 11 9 11 9 8 10 11 9 8 5 7 12 18 18 18 17 16 15 15 14 12 10 9 9 8
3 3 4 4 4 2 5 5 4 4 5 3 2 2 3 5 3 6 7 9 9 10 10 9 8 7 7 5 7 12 13 16 16 16 16 15 14 13 12 10 10 8 7
2 4 3 4 4 3 4 7 6 7 5 3 3 2 4 5 3 3 9 8 7 8 7 8 7 6 6 6 4 10 12 12 13 13 13 13 13 13 12 11 9 8 6
1 4 4 4 3 3 5 5 6 5 5 4 3 3 6 4 5 4 8 10 9 8 8 7 7 6 6 6 8 12 12 11 11 10 11 11 12 12 12 11 10 8 7
1 3 3 3 3 3 4 5 6 5 6 6 6 4 6 9 6 8 8 9 6 7 4 6 6 6 6 5 6 9 12 11 10 9 10 10 10 10 10 9 9 9 7
2 3 4 4 4 5 4 5 3 4 7 8 7 5 7 8 10 10 9 11 8 2 3 4 5 5 5 5 6 9 6 11 10 10 9 9 11 10 9 9 8 8 7
2 4 5 5 5 5 5 6 6 9 9 8 5 7 8 7 7 7 8 7 8 6 3 5 3 5 5 5 7 6 7 11 11 11 9 8 8 8 8 6 8 8 8
3 5 5 6 6 6 7 8 9 9 10 6 6 10 9 8 8 8 8 7 7 6 4 2 3 4 5 5 9 7 6 9 9 8 8 9 8 8 9 10 9 8 8
4 5 5 6 6 9 8 8 10 10 11 11 8 12 12 11 7 7 8 9 7 5 8 3 2 3 4 6 4 3 4 5 4 10 12 11 11 11 11 9 9 9 12
5 6 6 6 8 7 8 10 11 10 10 10 9 10 11 9 9 8 7 9 8 5 5 7 3 2 2 5 7 5 4 6 7 11 13 13 14 12 9 10 10 9 8
6 6 6 7 6 7 8 7 9 9 8 9 8 10 9 12 9 7 7 6 6 4 3 4 3 2 2 2 3 2 4 5 5 9 12 10 9 9 9 10 10 10 12
6 6 5 6 6 6 7 10 10 10 8 7 7 8 8 9 10 8 7 6 5 4 5 5 3 3 2 1 2 3 2 2 3 1 4 7 8 10 12 11 11 14 14
5 5 6 7 6 5 5 10 10 10 10 9 7 7 8 9 11 8 6 5 5 6 6 4 3 2 2 2 4 2 2 2 3 3 3 4 3 3 5 10 14 18 18
6 7 7 9 5 3 8 13 9 9 10 9 9 7 7 10 10 11 9 8 7 7 5 5 4 4 5 3 2 4 3 2 3 3 5 4 4 4 7 7 15 17 16
6 7 8 8 6 5 12 14 13 6 8 7 7 7 8 6 8 6 5 8 7 10 10 7 6 5 4 7 5 3 4 4 4 4 3 3 4 6 6 8 15 17 17
7 6 7 7 8 5 12 14 13 9 6 6 7 7 6 6 6 8 7 6 6 7 6 3 7 4 4 5 5 4 6 3 2 4 2 3 3 2 3 3 4 6 10
5 4 5 6 7 5 9 11 10 7 6 6 5 6 7 7 8 12 8 7 6 5 4 10 11 10 10 9 7 3 2 4 2 1 4 2 3 3 3 2 3 8 9
5 6 6 6 7 5 8 10 8 6 6 5 5 5 10 9 8 7 7 7 5 2 4 4 3 2 3 2 6 4 4 3 1 2 2 2 1 1 4 3 3 3 3
Wind_Direction
242 250 260 256 257 211 189 196 203 198 213 224 216 209 199 194 186 156 151 178 181 177 177 165 155 147 165 173 177 177 153 138 132 126 117 121 123 121 116 117 112 106 105
217 226 259 265 248 213 200 190 203 212 220 216 228 212 180 182 173 154 148 157 166 170 166 153 154 161 180 165 174 162 148 135 131 123 126 123 121 118 118 117 112 112 113
217 218 243 257 244 226 194 184 205 208 225 236 222 181 127 184 161 147 128 142 168 169 164 161 162 162 157 166 178 154 144 134 133 131 122 126 121 120 122 117 118 118 114
238 226 233 238 231 203 187 180 181 206 239 212 175 143 134 188 156 130 135 137 139 150 163 164 160 158 160 177 169 149 140 135 133 128 129 129 125 123 118 121 125 123 123
251 231 223 242 217 194 179 178 183 176 211 179 170 102 110 209 135 136 125 137 136 137 143 159 166 167 165 172 162 147 138 134 134 128 137 133 124 124 132 132 131 127 123
250 253 226 242 185 175 180 160 193 203 188 173 154 117 228 175 131 145 138 135 139 138 131 133 155 154 160 160 155 142 137 139 135 140 142 125 130 138 136 134 132 132 129
229 249 210 240 186 175 183 181 172 203 219 157 118 68 13 58 132 135 141 130 132 131 119 113 127 120 137 147 165 143 148 142 143 147 131 140 132 142 135 135 138 139 139
205 216 210 219 193 164 181 176 156 105 136 173 150 137 135 55 107 136 128 131 129 125 124 122 133 126 132 152 161 165 136 145 150 147 144 137 135 134 140 150 146 152 145
175 185 193 178 193 160 171 157 144 137 147 151 135 129 122 168 144 152 127 134 127 130 124 124 122 128 137 161 163 178 148 151 160 155 138 140 139 143 148 155 158 163 161
188 169 167 180 188 162 139 132 133 146 130 155 71 46 111 129 134 138 131 129 128 123 128 127 131 129 140 151 164 164 140 154 155 147 147 148 147 150 153 171 176 173 175
13 172 165 140 167 178 151 128 128 140 147 149 133 139 68 81 94 129 134 130 118 124 128 127 129 124 148 152 151 144 144 143 149 148 150 157 160 160 169 181 181 183 181
251 160 149 132 132 113 143 154 156 172 124 135 151 135 136 126 134 111 115 129 129 127 125 126 125 144 148 143 149 152 142 145 141 147 155 159 166 173 181 183 191 200 200
112 128 121 112 125 150 132 142 149 159 155 140 133 127 108 130 115 119 129 121 129 129 142 129 136 143 140 132 155 147 144 137 148 157 167 174 176 179 184 191 202 210 206
133 133 130 141 146 155 139 138 117 97 107 111 113 101 118 126 142 151 134 136 139 132 92 134 139 147 130 126 147 141 144 149 163 173 175 184 186 182 189 201 207 214 213
119 146 151 148 153 147 132 107 100 92 84 87 95 105 111 112 111 105 119 145 145 130 119 121 127 149 137 132 156 151 165 170 177 183 182 185 184 185 192 211 226 208 210
107 114 118 113 111 111 100 105 99 96 95 93 102 106 106 106 109 113 107 93 82 103 110 88 74 140 151 139 164 158 168 173 181 180 184 194 198 198 206 214 214 218 213
117 106 115 111 114 120 112 101 104 109 109 115 119 130 119 120 119 117 114 110 101 90 120 63 77 117 135 140 168 169 171 177 191 196 199 201 204 210 215 218 216 219 224
78 98 96 105 115 107 109 115 118 113 119 119 123 135 125 124 118 111 121 114 113 92 121 121 109 132 159 166 171 176 175 197 200 211 207 207 213 214 217 225 228 234 237
62 73 96 96 93 107 117 106 112 108 106 116 128 130 130 128 123 120 98 123 98 95 108 125 142 148 123 153 134 171 200 212 208 216 214 221 223 221 223 231 231 236 236
93 77 75 115 123 128 130 123 122 117 119 109 115 125 128 130 123 120 122 131 118 136 144 141 136 138 120 190 133 171 255 225 220 214 217 218 215 222 230 229 231 236 238
108 91 77 83 73 93 121 122 127 125 129 122 116 122 126 128 124 149 147 160 170 168 156 135 113 139 145 171 188 201 211 285 287 186 221 237 220 224 253 242 244 240 236
108 95 84 92 69 45 104 110 118 124 130 136 138 138 136 134 153 178 188 184 187 151 145 145 175 163 208 198 133 193 193 197 273 205 181 263 156 230 245 229 235 237 237
109 101 97 98 99 102 124 113 115 119 129 136 138 143 152 164 166 185 146 145 165 169 157 156 173 184 181 196 159 210 216 202 208 268 134 268 192 238 246 259 242 241 245
121 119 105 105 99 75 124 133 136 144 136 141 147 153 158 159 174 150 153 141 123 94 85 123 134 135 147 127 150 187 211 209 48 43 17 255 32 320 307 294 33 277 272
122 120 122 111 106 86 92 131 127 130 130 141 144 154 139 146 155 154 144 133 119 107 81 91 106 128 129 139 159 125 40 60 348 325 342 118 346 324 307 327 350 20 349
129 136 135 139 134 120 75 86 108 120 110 114 90 108 138 132 104 103 134 134 119 148 122 104 92 102 199 105 51 64 153 130 132 28 296 91 262 344 344 314 301 306 321